Location: Walton
(43.6794°N, 81.3017°W)
Time: 17:52:09
(UTC+00:00)

Cosmos 2180 Rocket - Visible Passes

Search period start: 07 March 2026 00:00
Search period end: 17 March 2026 00:00
Orbit: 952 x 1004 km, 82.9° (Epoch: 7 March)

Date Brightness Start Highest point End Pass type
(mag) Time Alt. Az. Time Alt. Az. Time Alt. Az.
7 Mar 6.6 01:01:54 10° NNW 01:06:52 26° W 01:11:49 10° SW visible
7 Mar 7.6 11:05:15 10° ESE 11:08:37 15° E 11:11:58 10° NE visible
7 Mar 4.5 23:41:52 10° N 23:48:03 85° E 23:54:11 10° S visible
8 Mar 7.5 01:29:31 10° NW 01:32:34 14° W 01:35:38 10° WSW visible
9 Mar 5.4 00:08:13 10° NNW 00:14:09 54° W 00:20:04 10° SSW visible
10 Mar 6.6 00:34:54 10° NNW 00:40:05 30° W 00:45:15 10° SW visible
10 Mar 7.8 10:39:08 10° ESE 10:41:54 13° ENE 10:44:39 10° NE visible
11 Mar 7.5 01:02:17 10° NW 01:05:50 16° W 01:09:24 10° WSW visible
11 Mar 7.2 11:02:42 10° SE 11:07:36 25° E 11:12:28 10° NNE visible
13 Mar 6.5 00:07:56 10° NNW 00:13:18 33° W 00:18:40 10° SSW visible
13 Mar 8.0 10:13:15 10° E 10:15:11 11° ENE 10:17:06 10° ENE visible
14 Mar 7.5 00:35:08 10° NW 00:39:05 18° W 00:43:04 10° WSW visible
14 Mar 7.3 10:36:14 10° SE 10:40:51 22° E 10:45:25 10° NE visible
15 Mar 6.2 11:00:58 10° SSE 11:06:42 39° E 11:12:23 10° NNE visible
